Time,TemperatureF,DewpointF,PressureIn,WindDirection,WindDirectionDegrees,WindSpeedMPH,WindSpeedGustMPH,Humidity,HourlyPrecipIn,Conditions,Clouds,dailyrainin,SoftwareType,DateUTC
2016-02-11 00:02:00,12.2,-19.4,29.09,West,270,3.8,3.8,22,0.00,,,0.00,VWS V15.00,2016-02-11 05:02:00,
2016-02-11 00:07:00,12.2,-19.4,29.09,WNW,292,3.4,3.4,22,0.00,,,0.00,VWS V15.00,2016-02-11 05:07:00,
2016-02-11 00:12:00,12.2,-19.4,29.09,WNW,292,2.0,2.0,22,0.00,,,0.00,VWS V15.00,2016-02-11 05:12:00,
2016-02-11 00:17:00,12.0,-19.5,29.12,WNW,292,5.6,5.6,22,0.00,,,0.00,VWS V15.00,2016-02-11 05:17:00,
2016-02-11 00:27:00,12.0,-19.5,29.12,WNW,292,5.8,5.8,22,0.00,,,0.00,VWS V15.00,2016-02-11 05:27:00,
2016-02-11 00:32:00,12.0,-19.5,29.12,West,270,6.0,6.0,22,0.00,,,0.00,VWS V15.00,2016-02-11 05:32:00,
2016-02-11 00:42:00,12.0,-19.5,29.12,WSW,248,3.6,3.6,22,0.00,,,0.00,VWS V15.00,2016-02-11 05:42:00,
2016-02-11 00:47:00,12.0,-19.5,29.12,WSW,248,6.3,6.3,22,0.00,,,0.00,VWS V15.00,2016-02-11 05:47:00,
2016-02-11 00:52:00,11.8,-19.7,29.12,WNW,292,3.8,3.8,22,0.00,,,0.00,VWS V15.00,2016-02-11 05:52:00,
2016-02-11 00:57:00,11.8,-19.7,29.12,WSW,248,5.8,5.8,22,0.00,,,0.00,VWS V15.00,2016-02-11 05:57:00,
2016-02-11 01:02:00,11.7,-19.8,29.12,WSW,248,2.0,2.0,22,0.00,,,0.00,VWS V15.00,2016-02-11 06:02:00,
2016-02-11 01:12:00,11.7,-19.8,29.12,WSW,248,3.4,3.4,22,0.00,,,0.00,VWS V15.00,2016-02-11 06:12:00,
2016-02-11 01:17:00,11.7,-19.8,29.12,WSW,248,2.7,2.7,22,0.00,,,0.00,VWS V15.00,2016-02-11 06:17:00,
2016-02-11 01:22:00,11.7,-19.8,29.12,West,270,1.6,1.6,22,0.00,,,0.00,VWS V15.00,2016-02-11 06:22:00,
2016-02-11 01:27:00,11.7,-19.8,29.12,WSW,248,2.5,2.5,22,0.00,,,0.00,VWS V15.00,2016-02-11 06:27:00,
2016-02-11 01:32:00,11.7,-19.8,29.12,WSW,248,2.0,2.0,22,0.00,,,0.00,VWS V15.00,2016-02-11 06:32:00,
2016-02-11 01:37:00,11.5,-20.0,29.12,WNW,292,2.0,2.0,22,0.00,,,0.00,VWS V15.00,2016-02-11 06:37:00,
2016-02-11 01:42:00,11.5,-20.0,29.12,WSW,248,2.5,2.5,22,0.00,,,0.00,VWS V15.00,2016-02-11 06:42:00,
2016-02-11 01:52:00,11.3,-20.1,29.12,WNW,292,3.8,3.8,22,0.00,,,0.00,VWS V15.00,2016-02-11 06:52:00,
2016-02-11 02:02:00,11.3,-20.1,29.12,WSW,248,1.3,1.3,22,0.00,,,0.00,VWS V15.00,2016-02-11 07:02:00,
2016-02-11 02:07:00,11.3,-20.1,29.12,WSW,248,0.0,0.0,22,0.00,,,0.00,VWS V15.00,2016-02-11 07:07:00,
2016-02-11 02:12:00,11.3,-20.1,29.12,WSW,248,1.3,1.3,22,0.00,,,0.00,VWS V15.00,2016-02-11 07:12:00,
2016-02-11 02:22:00,11.3,-20.1,29.12,SW,225,3.6,3.6,22,0.00,,,0.00,VWS V15.00,2016-02-11 07:22:00,
2016-02-11 02:28:00,11.3,-20.1,29.12,WSW,248,2.2,2.2,22,0.00,,,0.00,VWS V15.00,2016-02-11 07:28:00,
2016-02-11 02:33:00,11.3,-20.1,29.12,SW,225,3.8,3.8,22,0.00,,,0.00,VWS V15.00,2016-02-11 07:33:00,
2016-02-11 02:38:00,11.3,-20.1,29.12,WSW,248,2.5,2.5,22,0.00,,,0.00,VWS V15.00,2016-02-11 07:38:00,
2016-02-11 02:43:00,11.3,-20.1,29.12,WSW,248,2.5,2.5,22,0.00,,,0.00,VWS V15.00,2016-02-11 07:43:00,
2016-02-11 02:48:00,11.1,-20.3,29.12,SW,225,2.2,2.2,22,0.00,,,0.00,VWS V15.00,2016-02-11 07:48:00,
2016-02-11 02:53:00,11.1,-20.3,29.12,WSW,248,1.3,1.3,22,0.00,,,0.00,VWS V15.00,2016-02-11 07:53:00,
2016-02-11 02:58:00,11.3,-20.1,29.12,WSW,248,3.1,3.1,22,0.00,,,0.00,VWS V15.00,2016-02-11 07:58:00,
2016-02-11 03:03:00,11.3,-20.1,29.12,WSW,248,2.0,2.0,22,0.00,,,0.00,VWS V15.00,2016-02-11 08:03:00,
2016-02-11 03:08:00,11.3,-20.1,29.12,WNW,292,2.2,2.2,22,0.00,,,0.00,VWS V15.00,2016-02-11 08:08:00,
2016-02-11 03:13:00,11.5,-20.0,29.12,West,270,2.5,2.5,22,0.00,,,0.00,VWS V15.00,2016-02-11 08:13:00,
2016-02-11 03:18:00,11.5,-20.0,29.12,SW,225,2.5,2.5,22,0.00,,,0.00,VWS V15.00,2016-02-11 08:18:00,
2016-02-11 03:23:00,11.5,-20.0,29.12,SW,225,2.5,2.5,22,0.00,,,0.00,VWS V15.00,2016-02-11 08:23:00,
2016-02-11 03:28:00,11.5,-20.0,29.12,WSW,248,2.5,2.5,22,0.00,,,0.00,VWS V15.00,2016-02-11 08:28:00,
2016-02-11 03:33:00,11.5,-20.0,29.14,WSW,248,2.7,2.7,22,0.00,,,0.00,VWS V15.00,2016-02-11 08:33:00,
2016-02-11 03:38:00,11.3,-20.1,29.14,SW,225,1.3,1.3,22,0.00,,,0.00,VWS V15.00,2016-02-11 08:38:00,
2016-02-11 03:43:00,11.1,-20.3,29.14,WSW,248,0.0,0.0,22,0.00,,,0.00,VWS V15.00,2016-02-11 08:43:00,
2016-02-11 03:58:00,10.9,-20.4,29.14,WSW,248,3.1,3.1,22,0.00,,,0.00,VWS V15.00,2016-02-11 08:58:00,
2016-02-11 04:03:00,10.8,-20.6,29.14,West,270,3.6,3.6,22,0.00,,,0.00,VWS V15.00,2016-02-11 09:03:00,
2016-02-11 04:13:00,10.8,-20.6,29.14,West,270,2.7,2.7,22,0.00,,,0.00,VWS V15.00,2016-02-11 09:13:00,
2016-02-11 04:18:00,10.6,-20.8,29.14,WSW,248,2.2,2.2,22,0.00,,,0.00,VWS V15.00,2016-02-11 09:18:00,
2016-02-11 04:23:00,10.4,-20.9,29.14,WSW,248,2.7,2.7,22,0.00,,,0.00,VWS V15.00,2016-02-11 09:23:00,
2016-02-11 04:28:00,10.4,-20.9,29.14,WSW,248,2.5,2.5,22,0.00,,,0.00,VWS V15.00,2016-02-11 09:28:00,
2016-02-11 04:33:00,10.4,-20.9,29.14,West,270,1.6,1.6,22,0.00,,,0.00,VWS V15.00,2016-02-11 09:33:00,
2016-02-11 04:38:00,10.4,-20.9,29.14,West,270,2.0,2.0,22,0.00,,,0.00,VWS V15.00,2016-02-11 09:38:00,
2016-02-11 04:43:00,10.4,-20.9,29.14,WSW,248,1.6,1.6,22,0.00,,,0.00,VWS V15.00,2016-02-11 09:43:00,
2016-02-11 04:48:00,10.4,-20.9,29.14,WSW,248,1.1,1.1,22,0.00,,,0.00,VWS V15.00,2016-02-11 09:48:00,
2016-02-11 04:53:00,10.4,-20.9,29.14,WSW,248,1.6,1.6,22,0.00,,,0.00,VWS V15.00,2016-02-11 09:53:00,
2016-02-11 04:58:00,10.2,-21.1,29.14,WSW,248,1.3,1.3,22,0.00,,,0.00,VWS V15.00,2016-02-11 09:58:00,
2016-02-11 05:03:00,10.2,-21.1,29.14,WSW,248,1.3,1.3,22,0.00,,,0.00,VWS V15.00,2016-02-11 10:03:00,
2016-02-11 05:13:00,10.2,-21.1,29.14,West,270,2.7,2.7,22,0.00,,,0.00,VWS V15.00,2016-02-11 10:13:00,
2016-02-11 05:18:00,10.2,-21.1,29.14,West,270,2.2,2.2,22,0.00,,,0.00,VWS V15.00,2016-02-11 10:18:00,
2016-02-11 05:23:00,10.2,-21.1,29.14,West,270,1.6,1.6,22,0.00,,,0.00,VWS V15.00,2016-02-11 10:23:00,
2016-02-11 05:28:00,10.2,-21.1,29.14,WSW,248,1.6,1.6,22,0.00,,,0.00,VWS V15.00,2016-02-11 10:28:00,
2016-02-11 05:33:00,10.2,-21.1,29.14,WSW,248,1.6,1.6,22,0.00,,,0.00,VWS V15.00,2016-02-11 10:33:00,
2016-02-11 05:38:00,10.0,-21.2,29.14,WSW,248,1.6,1.6,22,0.00,,,0.00,VWS V15.00,2016-02-11 10:38:00,
2016-02-11 05:43:00,10.0,-21.2,29.14,West,270,1.6,1.6,22,0.00,,,0.00,VWS V15.00,2016-02-11 10:43:00,
2016-02-11 05:48:00,10.0,-21.2,29.17,WSW,248,1.3,1.3,22,0.00,,,0.00,VWS V15.00,2016-02-11 10:48:00,
2016-02-11 05:58:00,10.0,-21.2,29.17,WSW,248,2.0,2.0,22,0.00,,,0.00,VWS V15.00,2016-02-11 10:58:00,
2016-02-11 06:03:00,9.9,-21.4,29.17,SW,225,1.3,1.3,22,0.00,,,0.00,VWS V15.00,2016-02-11 11:03:00,
2016-02-11 06:08:00,10.0,-21.2,29.17,SW,225,1.3,1.3,22,0.00,,,0.00,VWS V15.00,2016-02-11 11:08:00,
2016-02-11 06:13:00,10.0,-21.2,29.17,SW,225,1.6,1.6,22,0.00,,,0.00,VWS V15.00,2016-02-11 11:13:00,
2016-02-11 06:18:00,10.0,-21.2,29.17,SW,225,1.3,1.3,22,0.00,,,0.00,VWS V15.00,2016-02-11 11:18:00,
2016-02-11 06:23:00,10.0,-21.2,29.17,West,270,2.2,2.2,22,0.00,,,0.00,VWS V15.00,2016-02-11 11:23:00,
2016-02-11 06:28:00,9.9,-21.4,29.17,West,270,2.0,2.0,22,0.00,,,0.00,VWS V15.00,2016-02-11 11:28:00,
2016-02-11 06:33:00,9.9,-21.4,29.17,West,270,2.5,2.5,22,0.00,,,0.00,VWS V15.00,2016-02-11 11:33:00,
2016-02-11 06:38:00,10.0,-21.2,29.17,WSW,248,2.5,2.5,22,0.00,,,0.00,VWS V15.00,2016-02-11 11:38:00,
2016-02-11 06:43:00,9.9,-21.4,29.17,West,270,2.7,2.7,22,0.00,,,0.00,VWS V15.00,2016-02-11 11:43:00,
2016-02-11 06:48:00,9.7,-21.5,29.20,WSW,248,2.2,2.2,22,0.00,,,0.00,VWS V15.00,2016-02-11 11:48:00,
2016-02-11 06:53:00,9.5,-21.7,29.20,WNW,292,0.0,0.0,22,0.00,,,0.00,VWS V15.00,2016-02-11 11:53:00,
2016-02-11 06:58:00,9.3,-21.8,29.20,WNW,292,0.0,0.0,22,0.00,,,0.00,VWS V15.00,2016-02-11 11:58:00,
2016-02-11 07:03:00,9.1,-22.0,29.20,WSW,248,1.3,1.3,22,0.00,,,0.00,VWS V15.00,2016-02-11 12:03:00,
2016-02-11 07:08:00,9.3,-21.8,29.20,West,270,1.6,1.6,22,0.00,,,0.00,VWS V15.00,2016-02-11 12:08:00,
2016-02-11 07:13:00,9.5,-21.7,29.20,WSW,248,1.1,1.1,22,0.00,,,0.00,VWS V15.00,2016-02-11 12:13:00,
2016-02-11 07:18:00,9.3,-21.8,29.20,SW,225,1.1,1.1,22,0.00,,,0.00,VWS V15.00,2016-02-11 12:18:00,
2016-02-11 07:23:00,9.1,-22.0,29.20,SW,225,0.0,0.0,22,0.00,,,0.00,VWS V15.00,2016-02-11 12:23:00,
2016-02-11 07:28:00,9.1,-22.0,29.20,SW,225,1.1,1.1,22,0.00,,,0.00,VWS V15.00,2016-02-11 12:28:00,
2016-02-11 07:33:00,9.1,-22.0,29.20,SW,225,0.0,0.0,22,0.00,,,0.00,VWS V15.00,2016-02-11 12:33:00,
2016-02-11 07:38:00,9.1,-22.0,29.20,WSW,248,2.0,2.0,22,0.00,,,0.00,VWS V15.00,2016-02-11 12:38:00,
2016-02-11 07:43:00,9.1,-22.0,29.20,SW,225,0.0,0.0,22,0.00,,,0.00,VWS V15.00,2016-02-11 12:43:00,
2016-02-11 07:53:00,9.5,-21.7,29.20,West,270,2.5,2.5,22,0.00,,,0.00,VWS V15.00,2016-02-11 12:53:00,
2016-02-11 08:03:00,10.2,-21.1,29.23,WSW,248,1.3,1.3,22,0.00,,,0.00,VWS V15.00,2016-02-11 13:03:00,
2016-02-11 08:08:00,10.6,-20.8,29.23,WSW,248,1.3,1.3,22,0.00,,,0.00,VWS V15.00,2016-02-11 13:08:00,
2016-02-11 08:13:00,10.8,-20.6,29.23,WSW,248,1.1,1.1,22,0.00,,,0.00,VWS V15.00,2016-02-11 13:13:00,
2016-02-11 08:23:00,11.7,-19.8,29.23,WSW,248,2.7,2.7,22,0.00,,,0.00,VWS V15.00,2016-02-11 13:23:00,
2016-02-11 08:28:00,12.0,-19.5,29.23,West,270,3.1,3.1,22,0.00,,,0.00,VWS V15.00,2016-02-11 13:28:00,
2016-02-11 08:33:00,12.4,-19.2,29.20,WSW,248,2.9,2.9,22,0.00,,,0.00,VWS V15.00,2016-02-11 13:33:00,
2016-02-11 08:38:00,12.9,-18.8,29.20,West,270,3.8,3.8,22,0.00,,,0.00,VWS V15.00,2016-02-11 13:38:00,
2016-02-11 08:43:00,13.5,-18.3,29.20,West,270,3.4,3.4,22,0.00,,,0.00,VWS V15.00,2016-02-11 13:43:00,
2016-02-11 08:48:00,13.8,-18.0,29.20,West,270,3.8,3.8,22,0.00,,,0.00,VWS V15.00,2016-02-11 13:48:00,
2016-02-11 08:53:00,14.2,-16.0,29.20,West,270,3.1,3.1,24,0.00,,,0.00,VWS V15.00,2016-02-11 13:53:00,
2016-02-11 08:58:00,14.9,-15.4,29.20,SW,225,3.8,3.8,24,0.00,,,0.00,VWS V15.00,2016-02-11 13:58:00,
2016-02-11 09:03:00,15.3,-15.1,29.23,NW,315,2.5,2.5,24,0.00,,,0.00,VWS V15.00,2016-02-11 14:03:00,
2016-02-11 09:08:00,15.6,-14.7,29.23,WNW,292,1.3,1.3,24,0.00,,,0.00,VWS V15.00,2016-02-11 14:08:00,
2016-02-11 09:13:00,16.0,-15.3,29.23,West,270,4.3,4.3,23,0.00,,,0.00,VWS V15.00,2016-02-11 14:13:00,
2016-02-11 09:18:00,16.2,-15.1,29.23,WNW,292,4.7,4.7,23,0.00,,,0.00,VWS V15.00,2016-02-11 14:18:00,